Location: S�tio Afonso Gruber
(26.1760°S, 49.5250°W)
Time: 07:46:01
(UTC+00:00)

X-37B - Visible Passes

Search period start: 02 December 2021 00:00
Search period end: 12 December 2021 00:00
Orbit: 330 x 341 km, 45.0° (Epoch: 20 November)

Date Brightness Start Highest point End Pass type
(mag) Time Alt. Az. Time Alt. Az. Time Alt. Az.
07 Dec 1.9 07:15:47 16° N 07:17:26 27° NE 07:19:55 10° ESE visible
08 Dec 0.5 07:35:30 14° WNW 07:37:47 60° SW 07:40:37 10° SE visible
09 Dec 2.6 06:23:54 21° E 06:23:54 21° E 06:25:21 10° ESE visible
10 Dec 0.7 06:43:27 58° S 06:43:27 58° S 06:46:03 10° SE visible
11 Dec 2.5 07:02:56 16° SW 07:03:47 17° SSW 07:05:49 10° SSE visible
